Regional Weather Roundup
Issued by NWS

Home | Current Version | Previous Version | Graphics & Text | Print | Product List | Glossary Off
Versions: 1 2 3 4 5 6 7 8 9 10 11 12 13 14 15 16 17 18 19 20 21 22 23 24 25 26 27 28 29 30 31 32 33 34 35 36 37 38 39 40 41 42 43 44 45 46 47 48 49 50

000
ASUS43 KMKX 310111
RWRWI

WISCONSIN REGIONAL WEATHER ROUNDUP
NATIONAL WEATHER SERVICE MILWAUKEE/SULLIVAN WI
800 PM CDT SAT AUG 30 2014

NOTE: "FAIR" INDICATES FEW OR NO CLOUDS BELOW 12,000 FEET WITH NO
SIGNIFICANT WEATHER AND/OR OBSTRUCTIONS TO VISIBILITY.

WIZ001-002-006>008-014>016-023>028-310200-
NORTHWEST WISCONSIN

CITY           SKY/WX    TMP DP  RH WIND       PRES   REMARKS
SUPERIOR ARPT  CLOUDY    62  60  94 NE7       29.90R
ASHLAND        CLOUDY    61  58  90 N5        29.92R
HAYWARD        CLOUDY    63  60  90 N5        29.91R
SIREN          MOCLDY    64  62  90 CALM      29.89R
RICE LAKE      CLOUDY    64  61  88 CALM      29.90R
LADYSMITH      MOCLDY    64  60  86 NE6       29.90R
EAU CLAIRE     CLOUDY    66  62  87 CALM      29.87S
MENOMONIE      CLOUDY    67  61  80 CALM      29.88S
NEW RICHMOND   CLEAR     64  60  86 CALM      29.89R
OSCEOLA        PTCLDY    65  64  94 E3        29.91R
$$

WIZ003>005-009-010-017-018-310200-
NORTH CENTRAL WISCONSIN

CITY           SKY/WX    TMP DP  RH WIND       PRES   REMARKS
WOODRUFF       CLOUDY    59  56  89 N6        29.91R
RHINELANDER    MOCLDY    59  56  89 N3        29.91R
EAGLE RIVER    CLOUDY    57  57 100 N8        29.90R
LAND O LAKES   CLOUDY    58  56  93 N6        29.92R
PHILLIPS       PTCLDY    60  57  91 N3        29.90R
TOMAHAWK       CLOUDY    60  57  89 CALM      29.91R
MEDFORD        CLOUDY    62  58  88 N3        29.90R
MERRILL        CLOUDY    63  60  92 N3        29.89R
$$

WIZ029-030-035-036-043>047-310200-
CENTRAL WISCONSIN

CITY           SKY/WX    TMP DP  RH WIND       PRES   REMARKS
WAUSAU         CLOUDY    64  60  87 NW7       29.87R
MOSINEE        CLOUDY    64  63  94 NW9       29.89R
MARSHFIELD     CLOUDY    66  61  84 N9        29.88R
STEVENS POINT  CLOUDY    66  62  84 NW5       29.88R
WAUPACA        CLOUDY    71  66  84 N5        29.86R
WAUTOMA        CLOUDY    73  67  81 NW7       29.86R
WISC RAPIDS    CLOUDY    69  62  78 NW9       29.88R
CAMP DOUGLAS   MOCLDY    69  69 100 N9        29.88R
$$

WIZ011>013-019>022-031-037>040-048>050-310200-
NORTHEAST WISCONSIN

CITY           SKY/WX    TMP DP  RH WIND       PRES   REMARKS
ANTIGO         CLOUDY    62  59  90 N8        29.89R
STURGEON BAY   CLOUDY    66  63  88 N8        29.83R
GREEN BAY      MOCLDY    69  66  90 NW6       29.84R
MANITOWOC      PTCLDY    70  66  87 W5        29.83R
APPLETON       MOCLDY    68  66  94 W7        29.85R
CLINTONVILLE   CLOUDY    68  63  83 NW8       29.86R
OSHKOSH        PTCLDY    70  66  87 SW5       29.84R
$$

WIZ032>034-041-042-053>061-310200-
SOUTHWEST WISCONSIN

CITY           SKY/WX    TMP DP  RH WIND       PRES   REMARKS
LA CROSSE      PTCLDY    72  65  78 N7        29.86R
SPARTA         CLOUDY    69  63  81 N3        29.88R
VIROQUA        FAIR      68  68 100 CALM      29.89R
BOSCOBEL       CLEAR     72  67  84 CALM      29.86R
PRAIRIE DU CHI PTCLDY    73  66  79 CALM      29.84S
PLATTEVILLE    FAIR      72  68  87 CALM      29.89R
$$

WIZ056-057-062-063-064-067-068-310200-
SOUTH CENTRAL WISCONSIN

CITY           SKY/WX    TMP DP  RH WIND       PRES   REMARKS
BARABOO/DELLS  MOCLDY    72  65  79 CALM      29.87R
LONE ROCK      CLEAR     77  68  73 CALM      29.86R
WATERTOWN      CLEAR     73  68  84 CALM      29.85R
MADISON        PTCLDY    75  65  70 CALM      29.86R
MIDDLETON      FAIR      72  65  80 W3        29.87R
MONROE         PTCLDY    73  66  78 SW8       29.88R
JANESVILLE     PTCLDY    73  66  78 SW7       29.86R
$$

WIZ051-052-058>065-066-070>072-310200-
SOUTHEAST WISCONSIN

CITY           SKY/WX    TMP DP  RH WIND       PRES   REMARKS
MILWAUKEE      PTCLDY    74  68  81 SW5       29.85R
WAUKESHA       NOT AVBL
MILWAUKEE/TIMM CLEAR     73  64  73 W3        29.86R
RACINE         CLEAR     73  66  78 SW6       29.87R
BURLINGTON     CLEAR     67  65  91 CALM      29.87R
KENOSHA        CLEAR     70  66  87 SW5       29.86R
FOND DU LAC    CLEAR     69  67  93 SW3       29.85R
SHEBOYGAN      CLEAR     69  65  86 W7        29.83R
WEST BEND      CLEAR     72  63  73 W6        29.85R
JUNEAU         CLEAR     70  66  88 CALM      29.87R
$$

LSZ147-162-310200-
LAKE SUPERIOR

STATION/POSITION TIME  TEMP    WIND        PRES    WAVE
                       AIR SEA DIR/SP/G            HT/PER
                 (UTC) (F)     (DEG/KT/KT) (MB)    (FT/S)
W MID LAKE BUOY  0050   59 58  280/  2/  4 1012.2R   1/ 4
DEVILS ISLAND    0100   61     160/  5/  5 1013.1R
PORT WING        0000   63     100/  3/  5 1012.5R
SAXON HARBOR     0000   62      50/  4/  5 1012.2S
$$

LMZ867-665-643>646-310200-
LAKE MICHIGAN

STATION/POSITION TIME  TEMP    WIND        PRES    WAVE
                       AIR SEA DIR/SP/G            HT/PER
                 (UTC) (F)     (DEG/KT/KT) (MB)    (FT/S)
N MID LAKE BUOY  0050   63 65  310/ 16/ 19 1008.4R   4/ 6
NORTHPORT PIER   0000   66     330/ 16/ 18 1008.5R
SISTER BAY       0041   65     350/ 17/ 20   N/A
ALGOMA LAKESHORE 0038          340/ 10/ 14   N/A
KEWAUNEE LAKESHO 0000   71     320/  4/  7 1008.0R
SHEBOYGAN LAKESH 0100   72 50  270/  6/  7 1010.3R
ATWATER BUOY     0100   69     280/  2/  4 1011.9R
MILWAUKEE LAKESH 0000   77     280/  7/ 10   N/A
S MID LAKE BUOY  0050   72 69  240/ 10/ 10 1010.7R   2/ 4
KENOSHA   LAKESH 0100   78     240/  7/ 11 1010.8R
$$

TC  - TEMPERATURE IN CELSIUS
VSB - VISIBILITY IN STATUTE MILES
WCI - WIND CHILL INDEX
HX  - HEAT INDEX




USA.gov is the U.S. government's official web portal to all federal, state and local government web resources and services.